Miscellaneous Local Product
Issued by NWS North Platte, NE

Home | Current Version | Previous Version | Text Only | Print | Product List | Glossary On
Versions: 1 2 3 4 5 6 7 8 9 10 11 12 13 14 15 16 17 18 19 20 21 22 23 24 25 26 27 28 29 30 31 32 33 34 35 36 37 38 39 40 41 42 43 44 45 46 47 48 49 50
000
AXUS43 KLBF 251810
MISLBF


WESTERN AND NORTH CENTRAL NEBRASKA HOURLY WEATHER ROUNDUP
NATIONAL WEATHER SERVICE NORTH PLATTE NE
1200 PM CST THU DEC 25 2014

***STATIONS NOT REPORTING VARIABLES SUCH AS SKY/WEATHER OR
PRESSURE ARE PROVIDED BY THE NEBRASKA DEPARTMENT OF
ROADS...RAWS...AND APRS NETWORKS...AND ARE NOT UNDER
NATIONAL WEATHER SERVICE QUALITY CONTROL***

...OBSERVATIONS IN AND NEAR THE EASTERN PANHANDLE OF NEBRASKA...

CITY           SKY/WX    TMP DP  RH WIND       PRES   REMARKS
PINE RIDGE     LGT SNOW  31  26  82 N15       29.66R WCI  20
CHADRON        FOG       30  28  92 NE18      29.65F VSB 1/2 WCI  18
ALLIANCE       SNOW      29  27  92 N21       29.57S VSB 1/2 WCI  16
SIDNEY         CLOUDY    32  26  78 N20G28    29.51F WCI  20
WHITECLAY        N/A     29  25  86 NE12        N/A  WCI  19
LISCO            N/A     32  27  80 W12         N/A  WCI  23
BIG SPRINGS      N/A     41  32  69 N8          N/A
$$

...OBSERVATIONS IN NORTH CENTRAL NEBRASKA...

CITY           SKY/WX    TMP DP  RH WIND       PRES   REMARKS
VALENTINE      FOG       31  30  96 N13G24    29.63R VSB 1/2 WCI  21
THEDFORD       MOSUNNY   34  28  79 N16G24    29.55S WCI  23
AINSWORTH      CLOUDY    31  25  78 N17G23    29.59R WCI  19
O`NEILL        SUNNY     32  28  86 N9        29.57F WCI  24
ORD            SUNNY     37  24  59 E6        29.50F WCI  32
BROKEN BOW     SUNNY     37  24  59 NE6       29.49F WCI  32
ROSE             N/A     34  30  86 N16         N/A  WCI  23
COMSTOCK         N/A     39  25  56 E8          N/A  WCI  34
$$

...OBSERVATIONS IN SOUTHWEST NEBRASKA AND FAR NORTHEAST COLORADO...

CITY           SKY/WX    TMP DP  RH WIND       PRES   REMARKS
WRAY           FAIR      42  25  50 N12       29.45R
HOLYOKE        FAIR      43  30  61 N16       29.47S
IMPERIAL       SUNNY     40  24  53 N18       29.45F WCI  31
OGALLALA       MOSUNNY   40  30  66 N14       29.49R WCI  33
NORTH PLATTE   SUNNY     42  24  49 N12       29.47F
MCCOOK         SUNNY     36  22  56 VRB3      29.44F
LEXINGTON      SUNNY     37  25  62 E5        29.47F WCI  33
PAXTON           N/A     40  31  70 N15         N/A  WCI  32
GOTHENBURG       N/A     36  22  57 E6          N/A  WCI  31
CALLAWAY         N/A     35  27  71 E5          N/A  WCI  31
$$

...NORTH PLATTE AREA...

CITY           SKY/WX    TMP DP  RH WIND       PRES   REMARKS
AIRPORT        SUNNY     42  24  49 N12       29.47F
$$

...SOME WEATHER OBSERVATIONS FROM AROUND THE REGION...

CITY           SKY/WX    TMP DP  RH WIND       PRES   REMARKS
DENVER         PTSUNNY   38  22  52 N9        29.48R WCI  31
LARAMIE        CLOUDY    29  25  85 E7        29.48S WCI  22
CHEYENNE       SNOW      30  28  92 NE10      29.51S VSB 1/2 WCI  21
SCOTTSBLUFF    SNOW      30  28  92 NE10      29.58F VSB 1/2 WCI  21
RAPID CITY     LGT SNOW  28  25  88 N23       29.72R VSB 1   WCI  14
PIERRE         LGT SNOW  31  29  92 N17       29.73S FOG     WCI  19
WINNER         CLOUDY    33  30  88 N17       29.66F WCI  22
SIOUX FALLS    CLOUDY    33  29  85 E7        29.67R WCI  27
OMAHA          MOSUNNY   42  29  59 S16       29.65F
GRAND ISLAND   SUNNY     39  25  57 SE9       29.53F WCI  33
KANSAS CITY    MOSUNNY   48  30  49 S25G35    29.74F
WICHITA        MOSUNNY   51  27  39 S29G40    29.63F
HAYS           MOSUNNY   46  23  39 SW17      29.47F
LIBERAL        CLOUDY    48  23  37 SW18      29.54F
GOODLAND       SUNNY     41  25  53 N7        29.43F
$$



USA.gov is the U.S. government's official web portal to all federal, state and local government web resources and services.